Weather History for Brainerd, MN

Change the Weather History Date:

Wednesday, October 20, 2010

  Actual Average Record
Temperature  
Mean Temperature 52 °F -  
Max Temperature 62 °F 51 °F 75 °F (2003)
Min Temperature 45 °F 29 °F 12 °F (1972)
Degree Days  
Heating Degree Days 12    
Growing Degree Days 2 (Base 50)    
Moisture  
Dew Point 28 °F    
Average Humidity 43    
Maximum Humidity 54    
Minimum Humidity 18    
Precipitation  
Precipitation 0.00 in - - ()
Sea Level Pressure  
Sea Level Pressure 29.74 in    
Wind  
Wind Speed 11 mph (WNW)    
Max Wind Speed 24 mph    
Max Gust Speed 34 mph    
Visibility 10 miles    
Events      
Averages and records for this station are not official NWS values.
T = Trace of Precipitation, MM = Missing Value Source: NWS Daily Summary

Daily Weather History Graph

Daily Weather History Graph

Search for Another Location

Airport:

Trip Planner

Search our weather history database for the weather conditions in past years. The results will help you decide how hot, cold, wet, or windy it might be!

Date:

Astronomy

Oct. 20, 2010 Rise Set
Actual Time 7:40 AM CDT 6:21 PM CDT
Civil Twilight 7:10 AM CDT 6:51 PM CDT
Nautical Twilight 6:35 AM CDT 7:26 PM CDT
Astronomical Twilight 6:00 AM CDT 8:01 PM CDT
Moon 4:59 PM CDT (10/20) 5:18 AM CDT (10/20)
Length of Visible Light 11h 41m
Length of Day
10h 40m
Waxing Gibbous, 95% of the Moon is Illuminated
Oct 20
Waxing Gibbous
Oct 22
Full
Oct 30
Last Quarter
Nov 5
New
Nov 13
First Quarter

Hourly Weather History & Observations

Time (CDT) Temp. Windchill Dew Point Humidity Pressure Visibility Wind Dir Wind Speed Gust Speed Precip Events Conditions
12:53 AM 50.0 °F - 30.9 °F 48% 29.70 in 10.0 mi West 10.4 mph - N/A   Clear
1:53 AM 48.0 °F - 32.0 °F 54% 29.70 in 10.0 mi West 6.9 mph - N/A   Clear
2:53 AM 48.0 °F - 32.0 °F 54% 29.70 in 10.0 mi West 9.2 mph - N/A   Clear
3:53 AM 48.9 °F - 33.1 °F 54% 29.71 in 10.0 mi West 8.1 mph - N/A   Clear
4:53 AM 50.0 °F - 33.1 °F 52% 29.71 in 10.0 mi West 10.4 mph - N/A   Partly Cloudy
5:53 AM 51.1 °F - 32.0 °F 48% 29.70 in 10.0 mi West 8.1 mph - N/A   Overcast
6:53 AM 50.0 °F - 32.0 °F 50% 29.69 in 10.0 mi West 5.8 mph - N/A   Mostly Cloudy
7:53 AM 48.9 °F - 33.1 °F 54% 29.69 in 10.0 mi West 8.1 mph - N/A   Overcast
8:53 AM 50.0 °F - 34.0 °F 54% 29.70 in 10.0 mi West 9.2 mph - N/A   Scattered Clouds
9:53 AM 51.1 °F - 35.1 °F 54% 29.70 in 10.0 mi West 8.1 mph - N/A   Mostly Cloudy
10:53 AM 53.1 °F - 35.1 °F 50% 29.69 in 10.0 mi WNW 10.4 mph - N/A   Overcast
11:53 AM 55.0 °F - 35.1 °F 47% 29.69 in 10.0 mi WNW 9.2 mph - N/A   Mostly Cloudy
12:53 PM 59.0 °F - 33.1 °F 38% 29.66 in 10.0 mi NW 20.7 mph 28.8 mph N/A   Scattered Clouds
1:53 PM 60.1 °F - 27.0 °F 28% 29.66 in 10.0 mi NW 24.2 mph 32.2 mph N/A   Clear
2:53 PM 60.1 °F - 16.0 °F 18% 29.67 in 10.0 mi WNW 21.9 mph 34.5 mph N/A   Clear
3:53 PM 57.9 °F - 19.0 °F 22% 29.72 in 10.0 mi NW 21.9 mph 33.4 mph N/A   Clear
4:53 PM 57.0 °F - 17.1 °F 21% 29.75 in 10.0 mi NW 17.3 mph 25.3 mph N/A   Clear
5:53 PM 54.0 °F - 19.0 °F 25% 29.78 in 10.0 mi NW 18.4 mph 26.5 mph N/A   Clear
6:53 PM 51.1 °F - 21.9 °F 32% 29.81 in 10.0 mi NW 9.2 mph - N/A   Clear
7:53 PM 50.0 °F - 23.0 °F 35% 29.84 in 10.0 mi NW 11.5 mph - N/A   Clear
8:53 PM 48.0 °F - 25.0 °F 41% 29.86 in 10.0 mi NW 10.4 mph - N/A   Clear
9:53 PM 46.9 °F - 26.1 °F 44% 29.87 in 10.0 mi NW 8.1 mph - N/A   Clear
10:53 PM 45.0 °F 40.6 °F 27.0 °F 49% 29.88 in 10.0 mi WNW 8.1 mph - N/A   Clear
11:53 PM 45.0 °F 40.6 °F 27.0 °F 49% 29.89 in 10.0 mi NW 8.1 mph - N/A   Partly Cloudy